M I D A S
Marine Information and Data Acquisition System
Tripno 2295 of the Zeeleeuw from 2012-04-24 10:33:03 to 2012-04-24 16:19:00
Back to CruiseResearch ActivitiesStationsMapUnderway DataData graphs

EquipmentUnitsComments
TimeDGPSUTC
LatitudeDGPSDM.mWGS84
LongitudeDGPSDM.mWGS84
SpeedMeteo Stationm/sRelative wind speed
DirectionMeteo StationdegRelative wind direction
TemperatureMeteo Stationdeg CelciusAir temperature
PressureMeteo StationPaAtmospheric pressure
HumidityMeteo Station%Relative humidity
Missing or incorrect values are displayed as -999
Metereological data collected by the RV Zeeleeuw from 2012-04-24 10:14:09 to 2012-04-24 16:22:50
                                                                                    Next 1000 lines
Time Latitude Longitude Speed Direction Temperature Pressure Humidity
2012-04-24 10:14:19 51°13.636 2°56.019 -999 24 9.5 99440 46
2012-04-24 10:14:25 51°13.636 2°56.019 -999 35 9.5 99440 46
2012-04-24 10:14:29 51°13.636 2°56.018 -999 24 9.5 99430 46
2012-04-24 10:14:34 51°13.636 2°56.019 -999 54 9.5 99430 46
2012-04-24 10:14:39 51°13.636 2°56.019 -999 24 9.5 99430 45
2012-04-24 10:14:45 51°13.636 2°56.019 -999 35 9.5 99430 45
2012-04-24 10:14:49 51°13.636 2°56.019 -999 24 9.5 99430 45
2012-04-24 10:14:54 51°13.636 2°56.019 -999 35 9.5 99430 45
2012-04-24 10:14:59 51°13.636 2°56.019 0.1 18 9.5 99440 45
2012-04-24 10:15:05 51°13.636 2°56.019 0.5 54 9.5 99440 45
2012-04-24 10:15:10 51°13.636 2°56.019 0.6 20 9.5 99430 45
2012-04-24 10:15:14 51°13.636 2°56.018 0.1 54 9.5 99430 45
2012-04-24 10:15:19 51°13.636 2°56.018 0.1 23 9.5 99430 44
2012-04-24 10:15:24 51°13.636 2°56.018 -999 54 9.5 99430 44
2012-04-24 10:15:30 51°13.636 2°56.018 -999 23 9.5 99440 45
2012-04-24 10:15:34 51°13.636 2°56.018 -999 35 9.5 99440 45
2012-04-24 10:15:39 51°13.636 2°56.018 -999 23 9.5 99440 45
2012-04-24 10:15:44 51°13.636 2°56.019 -999 54 9.5 99440 45
2012-04-24 10:15:49 51°13.636 2°56.019 0.1 22 9.5 99440 45
2012-04-24 10:15:54 51°13.636 2°56.019 0.1 35 9.5 99440 45
2012-04-24 10:15:59 51°13.636 2°56.018 0.1 23 9.5 99440 45
2012-04-24 10:16:04 51°13.636 2°56.018 -999 35 9.5 99440 45
2012-04-24 10:16:10 51°13.636 2°56.018 1.1 23 9.5 99440 45
2012-04-24 10:16:15 51°13.636 2°56.018 1.5 55 9.5 99440 45
2012-04-24 10:16:19 51°13.636 2°56.018 2.2 18 9.5 99440 46
2012-04-24 10:16:25 51°13.636 2°56.018 1.6 40 9.5 99440 46
2012-04-24 10:16:30 51°13.637 2°56.018 1.3 27 9.5 99440 45
2012-04-24 10:16:35 51°13.637 2°56.018 1.3 59 9.5 99440 45
2012-04-24 10:16:40 51°13.637 2°56.018 0.8 28 9.4 99440 45
2012-04-24 10:16:45 51°13.637 2°56.018 0.2 54 9.4 99440 45
2012-04-24 10:16:50 51°13.637 2°56.018 0.1 23 9.4 99440 46
2012-04-24 10:16:55 51°13.637 2°56.018 -999 54 9.4 99440 46
2012-04-24 10:16:59 51°13.637 2°56.018 -999 23 9.4 99440 45
2012-04-24 10:17:05 51°13.637 2°56.018 1.2 35 9.4 99440 45
2012-04-24 10:17:10 51°13.637 2°56.018 1.7 23 9.4 99440 45
2012-04-24 10:17:15 51°13.637 2°56.018 1.5 78 9.4 99440 45
2012-04-24 10:17:19 51°13.637 2°56.018 1.7 20 9.4 99430 45
2012-04-24 10:17:25 51°13.637 2°56.018 2.3 56 9.4 99430 45
2012-04-24 10:17:30 51°13.637 2°56.018 2.3 26 9.4 99440 44
2012-04-24 10:17:35 51°13.637 2°56.018 1.7 32 9.4 99440 44
2012-04-24 10:17:39 51°13.637 2°56.018 2.5 24 9.4 99440 45
2012-04-24 10:17:45 51°13.637 2°56.018 2.2 55 9.4 99440 45
2012-04-24 10:17:50 51°13.637 2°56.018 1.9 24 9.4 99440 45
2012-04-24 10:17:55 51°13.637 2°56.018 1.6 32 9.4 99440 45
2012-04-24 10:17:59 51°13.637 2°56.018 2 22 9.4 99440 44
2012-04-24 10:18:05 51°13.637 2°56.018 2.3 58 9.4 99440 44
2012-04-24 10:18:10 51°13.636 2°56.018 2.2 25 9.4 99440 45
2012-04-24 10:18:15 51°13.636 2°56.018 2.1 40 9.4 99440 45
2012-04-24 10:18:19 51°13.636 2°56.018 2.7 21 9.4 99440 45
2012-04-24 10:18:24 51°13.635 2°56.018 2 30 9.4 99440 45
2012-04-24 10:18:29 51°13.635 2°56.018 2 27 9.4 99440 46
2012-04-24 10:18:34 51°13.635 2°56.018 1.9 51 9.4 99440 46
2012-04-24 10:18:39 51°13.636 2°56.018 1.1 28 9.4 99440 46
2012-04-24 10:18:44 51°13.636 2°56.018 1.3 31 9.4 99440 46
2012-04-24 10:18:50 51°13.636 2°56.018 2.1 27 9.3 99440 45
2012-04-24 10:18:54 51°13.636 2°56.018 0.9 33 9.3 99440 45
2012-04-24 10:18:59 51°13.636 2°56.018 0.8 28 9.3 99440 46
2012-04-24 10:19:04 51°13.636 2°56.018 1.6 31 9.3 99440 46
2012-04-24 10:19:09 51°13.637 2°56.018 1.9 22 9.3 99440 45
2012-04-24 10:19:14 51°13.637 2°56.018 1.4 37 9.3 99440 45
2012-04-24 10:19:19 51°13.637 2°56.019 1 28 9.3 99440 45
2012-04-24 10:19:24 51°13.637 2°56.019 1.3 40 9.3 99440 45
2012-04-24 10:19:29 51°13.637 2°56.019 1.6 23 9.3 99440 46
2012-04-24 10:19:35 51°13.636 2°56.019 1.7 36 9.3 99440 46
2012-04-24 10:19:40 51°13.636 2°56.019 1.4 20 9.3 99440 45
2012-04-24 10:19:44 51°13.636 2°56.019 1.8 38 9.3 99440 45
2012-04-24 10:19:50 51°13.636 2°56.019 2.2 26 9.3 99440 45
2012-04-24 10:19:54 51°13.636 2°56.019 1.3 38 9.3 99440 45
2012-04-24 10:19:59 51°13.637 2°56.019 1.4 20 9.3 99440 45
2012-04-24 10:20:04 51°13.637 2°56.019 1.6 33 9.3 99440 45
2012-04-24 10:20:09 51°13.636 2°56.019 1.1 19 9.3 99440 45
2012-04-24 10:20:15 51°13.636 2°56.019 1.6 31 9.3 99440 45
2012-04-24 10:20:20 51°13.636 2°56.019 1.9 21 9.3 99440 46
2012-04-24 10:20:24 51°13.636 2°56.019 1.9 32 9.3 99440 46
2012-04-24 10:20:29 51°13.636 2°56.019 1.9 27 9.3 99440 45
2012-04-24 10:20:34 51°13.636 2°56.019 2 34 9.3 99440 45
2012-04-24 10:20:39 51°13.636 2°56.019 2 21 9.3 99440 45
2012-04-24 10:20:44 51°13.636 2°56.019 0.8 38 9.3 99440 45
2012-04-24 10:20:49 51°13.636 2°56.019 0.7 20 9.3 99440 45
2012-04-24 10:20:53 51°13.636 2°56.019 0.1 59 9.3 99440 45
2012-04-24 10:21:00 51°13.636 2°56.019 1.5 26 9.3 99440 46
2012-04-24 10:21:05 51°13.636 2°56.019 0.8 59 9.3 99440 46
2012-04-24 10:21:09 51°13.636 2°56.019 0.1 25 9.3 99440 45
2012-04-24 10:21:14 51°13.636 2°56.019 0.1 35 9.3 99440 45
2012-04-24 10:21:19 51°13.636 2°56.019 -999 24 9.3 99440 44
2012-04-24 10:21:24 51°13.636 2°56.019 2 32 9.3 99440 44
2012-04-24 10:21:29 51°13.636 2°56.019 2.1 22 9.3 99440 45
2012-04-24 10:21:33 51°13.636 2°56.019 1.9 56 9.3 99440 45
2012-04-24 10:21:38 51°13.636 2°56.019 2 21 9.3 99440 45
2012-04-24 10:21:43 51°13.636 2°56.019 2.7 32 9.3 99440 45
2012-04-24 10:21:48 51°13.636 2°56.019 2.8 22 9.3 99440 45
2012-04-24 10:21:53 51°13.636 2°56.019 1.4 36 9.3 99440 45
2012-04-24 10:21:59 51°13.636 2°56.019 1.5 19 9.3 99440 45
2012-04-24 10:22:04 51°13.637 2°56.019 1.9 32 9.3 99440 45
2012-04-24 10:22:09 51°13.637 2°56.019 1.9 22 9.3 99440 45
2012-04-24 10:22:14 51°13.637 2°56.019 1.9 37 9.3 99440 45
2012-04-24 10:22:20 51°13.637 2°56.019 1.8 25 9.4 99440 47
2012-04-24 10:22:24 51°13.637 2°56.019 1.2 40 9.4 99440 47
2012-04-24 10:22:29 51°13.637 2°56.019 2.1 27 9.4 99440 45
2012-04-24 10:22:34 51°13.637 2°56.019 1.7 34 9.4 99440 45
2012-04-24 10:22:39 51°13.637 2°56.019 1.3 20 9.4 99440 46
2012-04-24 10:22:44 51°13.637 2°56.019 1.3 34 9.4 99440 46
2012-04-24 10:22:49 51°13.637 2°56.019 1.4 29 9.4 99440 45
2012-04-24 10:22:54 51°13.637 2°56.019 0.9 35 9.4 99440 45
2012-04-24 10:23:00 51°13.637 2°56.019 1.4 23 9.3 99440 46
2012-04-24 10:23:05 51°13.637 2°56.019 1.7 31 9.3 99440 46
2012-04-24 10:23:10 51°13.637 2°56.019 2.1 27 9.3 99440 44
2012-04-24 10:23:14 51°13.637 2°56.019 2.3 58 9.3 99440 44
2012-04-24 10:23:20 51°13.637 2°56.019 2.1 23 9.3 99440 43
2012-04-24 10:23:25 51°13.637 2°56.019 1.5 38 9.3 99440 43
2012-04-24 10:23:30 51°13.637 2°56.019 2.4 26 9.3 99440 45
2012-04-24 10:23:34 51°13.637 2°56.019 2.1 53 9.3 99440 45
2012-04-24 10:23:40 51°13.637 2°56.019 1.3 27 9.3 99440 45
2012-04-24 10:23:45 51°13.637 2°56.019 0.9 33 9.3 99440 45
2012-04-24 10:23:50 51°13.637 2°56.019 1.7 22 9.3 99440 45
2012-04-24 10:23:54 51°13.637 2°56.019 2.1 37 9.3 99440 45
2012-04-24 10:23:59 51°13.637 2°56.019 2.5 19 9.3 99440 45
2012-04-24 10:24:05 51°13.637 2°56.019 2.3 38 9.3 99440 45
2012-04-24 10:24:10 51°13.637 2°56.018 2.2 20 9.4 99440 46
2012-04-24 10:24:14 51°13.637 2°56.018 1.8 33 9.4 99440 46
2012-04-24 10:24:19 51°13.637 2°56.018 0.9 28 9.3 99440 45
2012-04-24 10:24:24 51°13.636 2°56.018 2.3 37 9.3 99440 45
2012-04-24 10:24:30 51°13.635 2°56.018 2.4 20 9.4 99440 46
2012-04-24 10:24:34 51°13.635 2°56.018 0.9 29 9.4 99440 46
2012-04-24 10:24:39 51°13.635 2°56.018 1.2 20 9.4 99440 45
2012-04-24 10:24:45 51°13.635 2°56.018 1 54 9.4 99440 45
2012-04-24 10:24:50 51°13.635 2°56.018 0.5 26 9.4 99440 45
2012-04-24 10:24:55 51°13.635 2°56.018 1.4 33 9.4 99440 45
2012-04-24 10:24:59 51°13.635 2°56.018 1.9 28 9.4 99440 45
2012-04-24 10:25:05 51°13.635 2°56.018 0.5 306 9.4 99440 45
2012-04-24 10:25:10 51°13.635 2°56.018 0.1 270 9.4 99440 46
2012-04-24 10:25:15 51°13.635 2°56.018 1.4 50 9.4 99440 46
2012-04-24 10:25:19 51°13.636 2°56.018 0.7 263 9.5 99440 46
2012-04-24 10:25:25 51°13.636 2°56.018 1.3 56 9.5 99440 46
2012-04-24 10:25:29 51°13.636 2°56.018 0.8 28 9.5 99440 45
2012-04-24 10:25:34 51°13.636 2°56.018 2.7 39 9.5 99440 45
2012-04-24 10:25:39 51°13.636 2°56.017 2.6 20 9.5 99440 46
2012-04-24 10:25:44 51°13.636 2°56.017 2.2 38 9.5 99440 46
2012-04-24 10:25:49 51°13.636 2°56.017 2.2 25 9.5 99440 46
2012-04-24 10:25:55 51°13.636 2°56.017 2.6 53 9.5 99440 46
2012-04-24 10:26:00 51°13.636 2°56.017 2 27 9.5 99450 44
2012-04-24 10:26:04 51°13.636 2°56.017 2.5 32 9.5 99450 44
2012-04-24 10:26:09 51°13.636 2°56.017 2.7 28 9.6 99450 46
2012-04-24 10:26:14 51°13.636 2°56.017 2.4 56 9.6 99450 46
2012-04-24 10:26:19 51°13.636 2°56.017 1.7 25 9.6 99440 47
2012-04-24 10:26:24 51°13.636 2°56.017 2.2 38 9.6 99440 47
2012-04-24 10:26:29 51°13.636 2°56.017 2.3 23 9.6 99440 45
2012-04-24 10:26:34 51°13.636 2°56.017 2.1 30 9.6 99440 45
2012-04-24 10:26:39 51°13.636 2°56.017 2.2 24 9.5 99440 46
2012-04-24 10:26:44 51°13.636 2°56.017 1.1 57 9.5 99440 46
2012-04-24 10:26:49 51°13.636 2°56.017 2.2 25 9.6 99440 45
2012-04-24 10:26:55 51°13.636 2°56.017 1.4 56 9.6 99440 45
2012-04-24 10:27:00 51°13.636 2°56.017 2.1 27 9.6 99450 46
2012-04-24 10:27:05 51°13.636 2°56.017 2.1 52 9.6 99450 46
2012-04-24 10:27:09 51°13.636 2°56.017 1.6 23 9.6 99450 46
2012-04-24 10:27:15 51°13.636 2°56.017 3.2 39 9.6 99450 46
2012-04-24 10:27:20 51°13.636 2°56.017 2.5 29 9.6 99440 45
2012-04-24 10:27:24 51°13.636 2°56.017 2.6 40 9.6 99440 45
2012-04-24 10:27:29 51°13.637 2°56.017 2.6 27 9.6 99450 46
2012-04-24 10:27:34 51°13.637 2°56.017 1.1 32 9.6 99450 46
2012-04-24 10:27:39 51°13.637 2°56.017 0.9 22 9.7 99450 45
2012-04-24 10:27:44 51°13.637 2°56.018 1.7 41 9.7 99450 45
2012-04-24 10:27:50 51°13.637 2°56.018 2.3 27 9.7 99450 46
2012-04-24 10:27:54 51°13.637 2°56.018 1.3 37 9.7 99450 46
2012-04-24 10:27:59 51°13.637 2°56.018 1.6 25 9.7 99450 47
2012-04-24 10:28:05 51°13.637 2°56.018 0.2 262 9.7 99450 47
2012-04-24 10:28:09 51°13.636 2°56.018 0.1 264 9.7 99440 45
2012-04-24 10:28:14 51°13.635 2°56.018 0.1 270 9.7 99440 45
2012-04-24 10:28:19 51°13.635 2°56.018 -999 270 9.7 99440 46
2012-04-24 10:28:24 51°13.636 2°56.018 -999 38 9.7 99440 46
2012-04-24 10:28:29 51°13.636 2°56.018 -999 25 9.7 99440 45
2012-04-24 10:28:35 51°13.636 2°56.018 2.3 35 9.7 99440 45
2012-04-24 10:28:39 51°13.636 2°56.018 2.1 27 9.7 99440 45
2012-04-24 10:28:45 51°13.636 2°56.018 2.2 51 9.7 99440 45
2012-04-24 10:28:50 51°13.636 2°56.018 1.7 20 9.8 99450 45
2012-04-24 10:28:55 51°13.636 2°56.018 2.5 34 9.8 99450 45
2012-04-24 10:28:59 51°13.636 2°56.018 3 26 9.8 99440 46
2012-04-24 10:29:05 51°13.636 2°56.018 1.3 49 9.8 99440 46
2012-04-24 10:29:10 51°13.636 2°56.018 1.5 26 9.8 99450 45
2012-04-24 10:29:15 51°13.635 2°56.018 2.1 31 9.8 99450 45
2012-04-24 10:29:19 51°13.635 2°56.018 1.9 21 9.8 99440 46
2012-04-24 10:29:24 51°13.635 2°56.018 1.6 38 9.8 99440 46
2012-04-24 10:29:29 51°13.636 2°56.018 2 20 9.8 99440 46
2012-04-24 10:29:35 51°13.636 2°56.018 2.2 30 9.8 99440 46
2012-04-24 10:29:39 51°13.636 2°56.018 3.1 20 9.8 99450 46
2012-04-24 10:29:44 51°13.636 2°56.018 2 33 9.8 99450 46
2012-04-24 10:29:49 51°13.636 2°56.018 2.8 27 9.8 99440 45
2012-04-24 10:29:54 51°13.636 2°56.018 2.5 58 9.8 99440 45
2012-04-24 10:29:59 51°13.636 2°56.018 2.7 23 9.8 99440 44
2012-04-24 10:30:05 51°13.635 2°56.018 2.8 35 9.8 99440 44
2012-04-24 10:30:09 51°13.636 2°56.018 2.7 22 9.8 99450 44
2012-04-24 10:30:15 51°13.636 2°56.018 2.9 56 9.8 99450 44
2012-04-24 10:30:20 51°13.636 2°56.018 3 19 9.7 99450 45
2012-04-24 10:30:24 51°13.635 2°56.018 2.6 31 9.7 99450 45
2012-04-24 10:30:30 51°13.635 2°56.018 3.4 21 9.7 99450 44
2012-04-24 10:30:34 51°13.635 2°56.018 2.9 32 9.7 99450 44
2012-04-24 10:30:39 51°13.635 2°56.018 2.7 21 9.7 99450 46
2012-04-24 10:30:44 51°13.636 2°56.018 2.5 33 9.7 99450 46
2012-04-24 10:30:50 51°13.636 2°56.018 2.6 23 9.7 99450 45
2012-04-24 10:30:54 51°13.636 2°56.018 2.9 32 9.7 99450 45
2012-04-24 10:30:59 51°13.636 2°56.017 3.2 25 9.7 99440 44
2012-04-24 10:31:04 51°13.636 2°56.017 3 38 9.7 99440 44
2012-04-24 10:31:10 51°13.636 2°56.017 2.8 20 9.7 99450 46
2012-04-24 10:31:15 51°13.636 2°56.017 2.8 34 9.7 99450 46
2012-04-24 10:31:19 51°13.636 2°56.017 2.9 29 9.7 99450 44
2012-04-24 10:31:24 51°13.636 2°56.017 3.4 30 9.7 99450 44
2012-04-24 10:31:29 51°13.636 2°56.017 2.9 26 9.7 99450 46
2012-04-24 10:31:34 51°13.636 2°56.017 3.1 31 9.7 99450 46
2012-04-24 10:31:39 51°13.635 2°56.017 3.2 21 9.7 99450 44
2012-04-24 10:31:44 51°13.635 2°56.017 2.9 30 9.7 99450 44
2012-04-24 10:31:49 51°13.636 2°56.017 3.5 27 9.7 99450 44
2012-04-24 10:31:54 51°13.636 2°56.017 2.9 36 9.7 99450 44
2012-04-24 10:31:59 51°13.636 2°56.018 3.2 19 9.6 99450 44
2012-04-24 10:32:05 51°13.636 2°56.018 2.8 53 9.6 99450 44
2012-04-24 10:32:09 51°13.636 2°56.018 1.5 23 9.6 99450 45
2012-04-24 10:32:15 51°13.636 2°56.018 0.4 53 9.6 99450 45
2012-04-24 10:32:20 51°13.636 2°56.018 2.1 23 9.5 99450 44
2012-04-24 10:32:25 51°13.636 2°56.018 2.4 36 9.5 99450 44
2012-04-24 10:32:29 51°13.636 2°56.018 2.4 18 9.5 99440 44
2012-04-24 10:32:35 51°13.636 2°56.018 2.2 53 9.5 99440 44
2012-04-24 10:32:40 51°13.636 2°56.018 2.2 269 9.5 99450 44
2012-04-24 10:32:45 51°13.635 2°56.018 2.4 42 9.5 99450 44
2012-04-24 10:32:49 51°13.635 2°56.018 1.7 22 9.5 99450 45
2012-04-24 10:32:55 51°13.636 2°56.018 2.8 49 9.5 99450 45
2012-04-24 10:33:00 51°13.636 2°56.017 2.2 22 9.5 99450 45
2012-04-24 10:33:05 51°13.636 2°56.017 2.7 31 9.5 99450 45
2012-04-24 10:33:09 51°13.636 2°56.017 2.4 24 9.6 99450 45
2012-04-24 10:33:14 51°13.636 2°56.017 2.7 33 9.6 99450 45
2012-04-24 10:33:19 51°13.636 2°56.017 2.1 26 9.6 99450 46
2012-04-24 10:33:24 51°13.636 2°56.017 0.9 54 9.6 99450 46
2012-04-24 10:33:29 51°13.636 2°56.017 1 20 9.6 99450 46
2012-04-24 10:33:34 51°13.636 2°56.017 1.2 268 9.6 99450 46
2012-04-24 10:33:39 51°13.636 2°56.017 0.4 269 9.6 99450 46
2012-04-24 10:33:44 51°13.635 2°56.017 1.5 312 9.6 99450 46
2012-04-24 10:33:49 51°13.635 2°56.017 2.7 28 9.6 99450 46
2012-04-24 10:33:54 51°13.635 2°56.017 2.5 37 9.6 99450 46
2012-04-24 10:33:59 51°13.635 2°56.017 2.4 22 9.7 99450 45
2012-04-24 10:34:04 51°13.635 2°56.017 3 31 9.7 99450 45
2012-04-24 10:34:09 51°13.635 2°56.016 3.2 28 9.7 99450 45
2012-04-24 10:34:13 51°13.635 2°56.015 3.4 40 9.7 99450 45
2012-04-24 10:34:19 51°13.635 2°56.012 2.8 21 9.7 99450 45
2012-04-24 10:34:25 51°13.637 2°56.008 3.1 39 9.7 99450 45
2012-04-24 10:34:30 51°13.638 2°56.003 3.5 26 9.7 99450 44
2012-04-24 10:34:34 51°13.639 2°55.999 3.2 38 9.7 99450 44
2012-04-24 10:34:39 51°13.64 2°55.993 3.9 22 9.7 99450 45
2012-04-24 10:34:44 51°13.642 2°55.987 3.8 35 9.7 99450 45
2012-04-24 10:34:50 51°13.644 2°55.979 3.8 25 9.7 99450 46
2012-04-24 10:34:54 51°13.645 2°55.973 2.9 39 9.7 99450 46
2012-04-24 10:34:59 51°13.647 2°55.966 3.4 22 9.7 99450 45
2012-04-24 10:35:05 51°13.65 2°55.956 4.4 34 9.7 99450 45
2012-04-24 10:35:09 51°13.651 2°55.95 4.6 25 9.7 99450 45
2012-04-24 10:35:14 51°13.654 2°55.941 5.1 32 9.7 99450 45
2012-04-24 10:35:19 51°13.656 2°55.932 5 26 9.7 99450 44
2012-04-24 10:35:25 51°13.659 2°55.92 5.3 34 9.7 99450 44
2012-04-24 10:35:30 51°13.661 2°55.911 5.7 23 9.7 99450 45
2012-04-24 10:35:34 51°13.663 2°55.903 5 32 9.7 99450 45
2012-04-24 10:35:39 51°13.665 2°55.893 4.9 28 9.7 99450 46
2012-04-24 10:35:44 51°13.668 2°55.883 4.9 40 9.7 99450 46
2012-04-24 10:35:49 51°13.67 2°55.874 5 26 9.7 99450 44
2012-04-24 10:35:54 51°13.673 2°55.864 4.1 37 9.7 99450 44
2012-04-24 10:35:59 51°13.676 2°55.854 4 27 9.6 99450 45
2012-04-24 10:36:04 51°13.679 2°55.844 4.2 31 9.6 99450 45
2012-04-24 10:36:09 51°13.683 2°55.834 4.3 25 9.6 99450 45
2012-04-24 10:36:14 51°13.687 2°55.824 4.9 39 9.6 99450 45
2012-04-24 10:36:19 51°13.691 2°55.815 3.2 26 9.5 99450 45
2012-04-24 10:36:25 51°13.696 2°55.803 2.7 49 9.5 99450 45
2012-04-24 10:36:30 51°13.701 2°55.794 2.5 25 9.5 99450 44
2012-04-24 10:36:35 51°13.707 2°55.785 2.9 32 9.5 99450 44
2012-04-24 10:36:39 51°13.711 2°55.778 3.3 26 9.5 99450 45
2012-04-24 10:36:44 51°13.716 2°55.77 3.5 31 9.5 99450 45
2012-04-24 10:36:49 51°13.722 2°55.761 4 24 9.7 99450 46
2012-04-24 10:36:54 51°13.727 2°55.753 4.3 36 9.7 99450 46
2012-04-24 10:36:59 51°13.732 2°55.744 5 22 9.8 99450 47
2012-04-24 10:37:05 51°13.739 2°55.734 5.4 30 9.8 99450 47
2012-04-24 10:37:10 51°13.745 2°55.726 4.2 26 9.8 99450 46
2012-04-24 10:37:15 51°13.75 2°55.718 5.7 52 9.8 99450 46
2012-04-24 10:37:19 51°13.755 2°55.712 5.3 25 9.7 99450 45
2012-04-24 10:37:24 51°13.761 2°55.704 5.1 34 9.7 99450 45
2012-04-24 10:37:30 51°13.769 2°55.695 5.7 26 9.7 99450 46
2012-04-24 10:37:34 51°13.774 2°55.689 5.5 33 9.7 99450 46
2012-04-24 10:37:39 51°13.78 2°55.681 4.6 21 9.6 99450 44
2012-04-24 10:37:44 51°13.786 2°55.674 4.4 33 9.6 99450 44
2012-04-24 10:37:49 51°13.793 2°55.667 5.1 22 9.6 99450 44
2012-04-24 10:37:54 51°13.8 2°55.66 5.3 36 9.6 99450 44
2012-04-24 10:37:59 51°13.806 2°55.653 5.3 26 9.5 99450 44
2012-04-24 10:38:04 51°13.813 2°55.647 4.8 51 9.5 99450 44
2012-04-24 10:38:10 51°13.821 2°55.64 4.8 25 9.6 99450 45
2012-04-24 10:38:15 51°13.828 2°55.635 5.8 37 9.6 99450 45
2012-04-24 10:38:19 51°13.833 2°55.632 5 21 9.6 99450 46
2012-04-24 10:38:25 51°13.841 2°55.627 3 32 9.6 99450 46
2012-04-24 10:38:30 51°13.847 2°55.623 3.4 25 9.5 99450 46
2012-04-24 10:38:34 51°13.852 2°55.62 2.8 33 9.5 99450 46
2012-04-24 10:38:40 51°13.859 2°55.616 3.1 22 9.5 99450 46
2012-04-24 10:38:45 51°13.866 2°55.613 4.1 37 9.5 99450 46
2012-04-24 10:38:50 51°13.871 2°55.611 3.8 20 9.5 99450 46
2012-04-24 10:38:54 51°13.876 2°55.609 4.4 34 9.5 99450 46
2012-04-24 10:39:00 51°13.883 2°55.607 3.6 22 9.6 99450 46
2012-04-24 10:39:04 51°13.887 2°55.606 5.1 32 9.6 99450 46
2012-04-24 10:39:09 51°13.892 2°55.605 4.8 19 9.7 99450 48
2012-04-24 10:39:14 51°13.897 2°55.604 4.9 38 9.7 99450 48
2012-04-24 10:39:20 51°13.903 2°55.604 4.9 25 9.6 99450 44
2012-04-24 10:39:25 51°13.908 2°55.605 5.1 36 9.6 99450 44
2012-04-24 10:39:29 51°13.911 2°55.605 5.2 45 9.6 99450 45
2012-04-24 10:39:34 51°13.916 2°55.606 5.1 44 9.6 99450 45
2012-04-24 10:39:39 51°13.921 2°55.608 4.9 43 9.5 99450 44
2012-04-24 10:39:45 51°13.926 2°55.609 4.6 44 9.5 99450 44
2012-04-24 10:39:49 51°13.93 2°55.611 4.4 42 9.5 99450 45
2012-04-24 10:39:55 51°13.935 2°55.614 4.7 42 9.5 99450 45
2012-04-24 10:39:59 51°13.938 2°55.616 5.1 40 9.5 99450 45
2012-04-24 10:40:04 51°13.942 2°55.618 4.7 39 9.5 99450 45
2012-04-24 10:40:10 51°13.947 2°55.622 4.5 39 9.4 99450 45
2012-04-24 10:40:15 51°13.95 2°55.624 4 38 9.4 99450 45
2012-04-24 10:40:20 51°13.953 2°55.627 3.9 40 9.4 99450 44
2012-04-24 10:40:24 51°13.956 2°55.63 4.5 35 9.4 99450 44
2012-04-24 10:40:30 51°13.96 2°55.634 4.1 34 9.4 99450 44
2012-04-24 10:40:35 51°13.963 2°55.636 4 34 9.4 99450 44
2012-04-24 10:40:40 51°13.965 2°55.639 4 32 9.4 99450 44
2012-04-24 10:40:44 51°13.967 2°55.641 3.8 32 9.4 99450 44
2012-04-24 10:40:49 51°13.968 2°55.642 3 29 9.3 99450 46
2012-04-24 10:40:55 51°13.97 2°55.643 3.4 21 9.3 99450 46
2012-04-24 10:40:59 51°13.97 2°55.643 3.5 18 9.3 99450 45
2012-04-24 10:41:04 51°13.971 2°55.643 2.9 15 9.3 99450 45
2012-04-24 10:41:09 51°13.971 2°55.642 3.4 14 9.3 99450 46
2012-04-24 10:41:14 51°13.971 2°55.64 2.8 7 9.3 99450 46
2012-04-24 10:41:20 51°13.97 2°55.636 3.2 4 9.3 99450 45
2012-04-24 10:41:25 51°13.97 2°55.633 3.3 356 9.3 99450 45
2012-04-24 10:41:29 51°13.97 2°55.629 3.1 356 9.3 99460 46
2012-04-24 10:41:34 51°13.971 2°55.624 3.5 351 9.3 99460 46
2012-04-24 10:41:39 51°13.972 2°55.619 3.8 348 9.2 99450 45
2012-04-24 10:41:44 51°13.973 2°55.613 3.7 347 9.2 99450 45
2012-04-24 10:41:49 51°13.975 2°55.606 4.6 345 9.2 99460 45
2012-04-24 10:41:54 51°13.978 2°55.599 5.3 335 9.2 99460 45
2012-04-24 10:41:59 51°13.981 2°55.592 5.7 334 9.2 99450 43
2012-04-24 10:42:04 51°13.986 2°55.584 5.4 332 9.2 99450 43
2012-04-24 10:42:10 51°13.992 2°55.574 5.5 328 9.2 99460 46
2012-04-24 10:42:14 51°13.997 2°55.567 4 328 9.2 99460 46
2012-04-24 10:42:19 51°14.004 2°55.558 5 328 9.2 99450 46
2012-04-24 10:42:24 51°14.011 2°55.549 6.9 328 9.2 99450 46
2012-04-24 10:42:30 51°14.021 2°55.539 6.2 328 9.2 99450 45
2012-04-24 10:42:34 51°14.028 2°55.531 6 329 9.2 99450 45
2012-04-24 10:42:39 51°14.037 2°55.522 6.3 329 9.2 99450 46
2012-04-24 10:42:44 51°14.046 2°55.512 6 331 9.2 99450 46
2012-04-24 10:42:49 51°14.055 2°55.503 6.5 330 9.1 99450 45
2012-04-24 10:42:54 51°14.065 2°55.493 6.9 329 9.1 99450 45
2012-04-24 10:42:59 51°14.076 2°55.483 7.5 327 9.2 99450 46
2012-04-24 10:43:04 51°14.086 2°55.472 7.2 331 9.2 99450 46
2012-04-24 10:43:09 51°14.097 2°55.461 7.4 331 9.2 99450 46
2012-04-24 10:43:15 51°14.11 2°55.448 7.6 329 9.2 99450 46
2012-04-24 10:43:19 51°14.118 2°55.439 6.8 328 9.2 99450 46
2012-04-24 10:43:24 51°14.13 2°55.428 7.3 328 9.2 99450 46
2012-04-24 10:43:29 51°14.141 2°55.417 7.2 328 9.2 99450 45
2012-04-24 10:43:34 51°14.153 2°55.406 6.9 325 9.2 99450 45
2012-04-24 10:43:39 51°14.164 2°55.394 6.9 325 9.2 99450 45
2012-04-24 10:43:44 51°14.176 2°55.382 7.3 327 9.2 99450 45
2012-04-24 10:43:49 51°14.188 2°55.37 7.2 328 9.2 99450 45
2012-04-24 10:43:54 51°14.2 2°55.358 6.9 327 9.2 99450 45
2012-04-24 10:43:59 51°14.212 2°55.347 7.3 327 9.2 99450 46
2012-04-24 10:44:04 51°14.224 2°55.335 8 328 9.2 99450 46
2012-04-24 10:44:10 51°14.239 2°55.321 6.7 327 9.2 99450 46
2012-04-24 10:44:15 51°14.252 2°55.309 8.5 329 9.2 99450 46
2012-04-24 10:44:20 51°14.264 2°55.297 7.8 329 9.2 99450 46
2012-04-24 10:44:24 51°14.274 2°55.287 8.1 326 9.2 99450 46
2012-04-24 10:44:29 51°14.287 2°55.275 7.5 328 9.2 99450 45
2012-04-24 10:44:34 51°14.3 2°55.263 7.9 326 9.2 99450 45
2012-04-24 10:44:39 51°14.312 2°55.25 8.7 327 9.2 99450 44
2012-04-24 10:44:44 51°14.325 2°55.237 7.8 327 9.2 99450 44
2012-04-24 10:44:49 51°14.338 2°55.224 8.5 327 9.2 99450 45
2012-04-24 10:44:55 51°14.354 2°55.207 7.3 328 9.2 99450 45
2012-04-24 10:45:00 51°14.367 2°55.194 8.2 327 9.2 99450 45
2012-04-24 10:45:04 51°14.378 2°55.183 7.6 325 9.2 99450 45
2012-04-24 10:45:09 51°14.391 2°55.169 7.1 325 9.2 99450 45
2012-04-24 10:45:15 51°14.406 2°55.151 8.3 325 9.2 99450 45
2012-04-24 10:45:19 51°14.417 2°55.139 8.7 326 9.2 99450 45
2012-04-24 10:45:24 51°14.43 2°55.125 7.8 327 9.2 99450 45
2012-04-24 10:45:29 51°14.443 2°55.11 8.4 325 9.2 99450 46
2012-04-24 10:45:34 51°14.457 2°55.095 7 327 9.2 99450 46
2012-04-24 10:45:39 51°14.47 2°55.08 7.8 326 9.2 99450 45
2012-04-24 10:45:44 51°14.484 2°55.065 7.9 302 9.2 99450 45
2012-04-24 10:45:49 51°14.496 2°55.049 8.7 327 9.2 99450 45
2012-04-24 10:45:54 51°14.51 2°55.033 8.8 327 9.2 99450 45
2012-04-24 10:45:59 51°14.522 2°55.016 8.2 326 9.2 99460 45
2012-04-24 10:46:04 51°14.535 2°54.998 8.4 327 9.2 99460 45
2012-04-24 10:46:09 51°14.547 2°54.981 7.4 325 9.2 99450 45
2012-04-24 10:46:14 51°14.56 2°54.964 8.5 326 9.2 99450 45
2012-04-24 10:46:18 51°14.57 2°54.951 7.7 325 9.2 99450 45
2012-04-24 10:46:24 51°14.586 2°54.93 7.5 302 9.2 99450 45
2012-04-24 10:46:28 51°14.596 2°54.916 9.1 326 9.2 99450 45
2012-04-24 10:46:34 51°14.612 2°54.897 7.8 304 9.2 99450 45
2012-04-24 10:46:39 51°14.625 2°54.88 7.1 326 9.2 99460 45
2012-04-24 10:46:44 51°14.638 2°54.863 7 324 9.2 99460 45
2012-04-24 10:46:49 51°14.651 2°54.847 6.6 324 9.2 99450 46
2012-04-24 10:46:54 51°14.664 2°54.83 8 304 9.2 99450 46
2012-04-24 10:46:59 51°14.678 2°54.814 8.9 325 9.2 99450 46
2012-04-24 10:47:03 51°14.688 2°54.802 7.6 325 9.2 99450 46
2012-04-24 10:47:08 51°14.702 2°54.786 8.4 326 9.2 99450 45
2012-04-24 10:47:13 51°14.715 2°54.77 8 302 9.2 99450 45
2012-04-24 10:47:18 51°14.728 2°54.754 6.9 326 9.2 99450 44
2012-04-24 10:47:23 51°14.742 2°54.737 7.5 326 9.2 99450 44
2012-04-24 10:47:27 51°14.752 2°54.724 8.5 327 9.2 99450 45
2012-04-24 10:47:32 51°14.765 2°54.707 9.2 326 9.2 99450 45
2012-04-24 10:47:38 51°14.781 2°54.687 9.3 327 9.2 99450 45
2012-04-24 10:47:43 51°14.793 2°54.669 7.5 325 9.2 99450 45
2012-04-24 10:47:48 51°14.806 2°54.651 8 325 9.2 99450 46
2012-04-24 10:47:53 51°14.818 2°54.634 8.2 325 9.2 99450 46
2012-04-24 10:47:58 51°14.831 2°54.617 8 324 9.3 99450 45
2012-04-24 10:48:03 51°14.844 2°54.601 8.1 305 9.3 99450 45
2012-04-24 10:48:07 51°14.855 2°54.588 8.7 326 9.3 99450 45
2012-04-24 10:48:12 51°14.868 2°54.572 7.1 304 9.3 99450 45
2012-04-24 10:48:17 51°14.881 2°54.556 8.6 324 9.2 99450 45
2012-04-24 10:48:22 51°14.895 2°54.541 7.2 304 9.2 99450 45
2012-04-24 10:48:27 51°14.909 2°54.527 8.4 324 9.3 99450 46
2012-04-24 10:48:32 51°14.923 2°54.514 7.4 305 9.3 99450 46
2012-04-24 10:48:36 51°14.935 2°54.505 8.6 324 9.3 99450 46
2012-04-24 10:48:41 51°14.95 2°54.495 9.3 306 9.3 99450 46
2012-04-24 10:48:46 51°14.965 2°54.487 7.7 321 9.2 99450 45
2012-04-24 10:48:51 51°14.981 2°54.479 9.2 304 9.2 99450 45
2012-04-24 10:48:56 51°14.996 2°54.473 8.3 320 9.3 99450 45
2012-04-24 10:49:00 51°15.009 2°54.467 7.8 305 9.3 99450 45
2012-04-24 10:49:06 51°15.027 2°54.461 8.1 319 9.3 99450 46
2012-04-24 10:49:11 51°15.043 2°54.458 8 309 9.3 99450 46
2012-04-24 10:49:16 51°15.059 2°54.456 7.6 319 9.3 99450 45
2012-04-24 10:49:20 51°15.072 2°54.455 7 303 9.3 99450 45
2012-04-24 10:49:26 51°15.091 2°54.455 6.9 316 9.3 99450 45
2012-04-24 10:49:31 51°15.106 2°54.457 7.8 308 9.3 99450 45
2012-04-24 10:49:36 51°15.121 2°54.462 6.5 26 9.3 99460 45
2012-04-24 10:49:41 51°15.136 2°54.468 7.1 302 9.3 99460 45
2012-04-24 10:49:46 51°15.15 2°54.476 7.9 22 9.3 99450 46
2012-04-24 10:49:51 51°15.164 2°54.486 6.7 310 9.3 99450 46
2012-04-24 10:49:56 51°15.178 2°54.496 6.5 24 9.3 99460 44
2012-04-24 10:50:01 51°15.191 2°54.507 5.3 304 9.3 99460 44
2012-04-24 10:50:06 51°15.204 2°54.521 6.7 29 9.3 99450 45
2012-04-24 10:50:11 51°15.216 2°54.535 6 303 9.3 99450 45
2012-04-24 10:50:16 51°15.228 2°54.55 5.6 23 9.2 99450 44
2012-04-24 10:50:20 51°15.237 2°54.563 6 309 9.2 99450 44
2012-04-24 10:50:26 51°15.25 2°54.582 5.6 25 9.2 99460 44
2012-04-24 10:50:31 51°15.262 2°54.598 6.7 311 9.2 99460 44
2012-04-24 10:50:36 51°15.273 2°54.614 5.7 21 9.2 99460 44
2012-04-24 10:50:41 51°15.285 2°54.629 6.2 309 9.2 99460 44
2012-04-24 10:50:46 51°15.297 2°54.644 6.2 19 9.2 99460 44
2012-04-24 10:50:51 51°15.309 2°54.659 6.1 307 9.2 99460 44
2012-04-24 10:50:56 51°15.321 2°54.674 6.1 19 9.2 99460 44
2012-04-24 10:51:01 51°15.334 2°54.689 7 308 9.2 99460 44
2012-04-24 10:51:06 51°15.346 2°54.703 6.2 22 9.2 99460 45
2012-04-24 10:51:11 51°15.359 2°54.716 6.3 284 9.2 99460 45
2012-04-24 10:51:16 51°15.372 2°54.728 6.5 24 9.2 99460 44
2012-04-24 10:51:20 51°15.383 2°54.738 6.8 310 9.2 99460 44
2012-04-24 10:51:26 51°15.399 2°54.751 7 18 9.2 99450 45
2012-04-24 10:51:31 51°15.413 2°54.764 6.7 303 9.2 99450 45
2012-04-24 10:51:36 51°15.426 2°54.776 6 26 9.2 99460 44
2012-04-24 10:51:41 51°15.439 2°54.789 6.5 310 9.2 99460 44
2012-04-24 10:51:46 51°15.452 2°54.802 6.2 25 9.2 99460 44
2012-04-24 10:51:51 51°15.465 2°54.815 7 307 9.2 99460 44
2012-04-24 10:51:56 51°15.479 2°54.828 6.3 25 9.2 99460 45
2012-04-24 10:52:00 51°15.489 2°54.838 7 306 9.2 99460 45
2012-04-24 10:52:06 51°15.506 2°54.853 6.7 23 9.2 99460 44
2012-04-24 10:52:11 51°15.519 2°54.865 6.7 302 9.2 99460 44
2012-04-24 10:52:16 51°15.533 2°54.877 7 20 9.1 99460 44
2012-04-24 10:52:20 51°15.545 2°54.885 6.1 306 9.1 99460 44
2012-04-24 10:52:26 51°15.561 2°54.899 6.6 22 9.1 99450 44
2012-04-24 10:52:31 51°15.575 2°54.91 6 304 9.1 99450 44
2012-04-24 10:52:36 51°15.589 2°54.921 6.8 28 9.1 99460 43
2012-04-24 10:52:41 51°15.602 2°54.933 6.3 309 9.1 99460 43
2012-04-24 10:52:46 51°15.616 2°54.945 7 24 9.1 99460 44
2012-04-24 10:52:51 51°15.629 2°54.959 6.7 307 9.1 99460 44
2012-04-24 10:52:56 51°15.643 2°54.971 6.8 19 9.1 99450 44
2012-04-24 10:53:01 51°15.655 2°54.986 6 302 9.1 99450 44
2012-04-24 10:53:06 51°15.668 2°55 6.3 27 9.1 99460 44
2012-04-24 10:53:11 51°15.681 2°55.015 5.6 281 9.1 99460 44
2012-04-24 10:53:16 51°15.693 2°55.03 6 21 9.1 99460 44
2012-04-24 10:53:21 51°15.705 2°55.047 5.5 303 9.1 99460 44
2012-04-24 10:53:26 51°15.717 2°55.063 5.5 29 9.1 99460 44
2012-04-24 10:53:31 51°15.728 2°55.08 5.6 303 9.1 99460 44
2012-04-24 10:53:36 51°15.739 2°55.097 5.5 20 9.1 99460 45
2012-04-24 10:53:41 51°15.75 2°55.116 6.3 308 9.1 99460 45
2012-04-24 10:53:46 51°15.761 2°55.133 5.5 27 9.1 99460 45
2012-04-24 10:53:51 51°15.771 2°55.152 5.7 309 9.1 99460 45
2012-04-24 10:53:56 51°15.782 2°55.17 6.1 27 9.1 99460 44
2012-04-24 10:54:00 51°15.79 2°55.185 5.8 301 9.1 99460 44
2012-04-24 10:54:06 51°15.803 2°55.206 6.2 28 9 99460 45
2012-04-24 10:54:11 51°15.814 2°55.225 6 302 9 99460 45
2012-04-24 10:54:16 51°15.825 2°55.242 6.5 20 9.1 99460 44
2012-04-24 10:54:20 51°15.834 2°55.256 6.3 301 9.1 99460 44
2012-04-24 10:54:26 51°15.848 2°55.276 6.3 28 9.1 99460 44
2012-04-24 10:54:31 51°15.86 2°55.292 6.4 304 9.1 99460 44
2012-04-24 10:54:36 51°15.872 2°55.308 6 22 9.1 99460 44
2012-04-24 10:54:41 51°15.884 2°55.325 5.7 308 9.1 99460 44
2012-04-24 10:54:46 51°15.895 2°55.341 6.3 19 9 99460 44
2012-04-24 10:54:51 51°15.907 2°55.358 6.1 310 9 99460 44
2012-04-24 10:54:56 51°15.918 2°55.375 6 20 9 99450 45
2012-04-24 10:55:01 51°15.929 2°55.392 5.9 308 9 99450 45
2012-04-24 10:55:05 51°15.938 2°55.406 6.2 20 9.1 99450 45
2012-04-24 10:55:11 51°15.952 2°55.425 6.2 303 9.1 99450 45
2012-04-24 10:55:16 51°15.964 2°55.441 6.5 22 9.1 99450 44
2012-04-24 10:55:21 51°15.977 2°55.457 6.4 304 9.1 99450 44
2012-04-24 10:55:25 51°15.987 2°55.469 5.5 26 9 99460 43
2012-04-24 10:55:31 51°16.001 2°55.487 6.2 308 9 99460 43
2012-04-24 10:55:36 51°16.014 2°55.502 6.8 28 9 99460 45
2012-04-24 10:55:40 51°16.024 2°55.514 6.7 307 9 99460 45
2012-04-24 10:55:45 51°16.036 2°55.529 5.8 20 9 99460 45
2012-04-24 10:55:51 51°16.052 2°55.546 6.4 301 9 99460 45
2012-04-24 10:55:56 51°16.065 2°55.56 6.2 22 9 99450 44
2012-04-24 10:56:00 51°16.075 2°55.571 5.7 306 9 99450 44
2012-04-24 10:56:06 51°16.09 2°55.589 4.7 21 9 99460 44
2012-04-24 10:56:11 51°16.102 2°55.604 5.7 302 9 99460 44
2012-04-24 10:56:16 51°16.115 2°55.618 5.1 26 9 99450 43
2012-04-24 10:56:20 51°16.125 2°55.63 5.9 303 9 99450 43
2012-04-24 10:56:25 51°16.138 2°55.644 4.9 20 9 99460 44
2012-04-24 10:56:31 51°16.152 2°55.663 4.9 306 9 99460 44
2012-04-24 10:56:36 51°16.164 2°55.679 5.8 25 9 99460 44
2012-04-24 10:56:40 51°16.173 2°55.692 5.5 303 9 99460 44
2012-04-24 10:56:45 51°16.185 2°55.709 4 22 9 99450 45
2012-04-24 10:56:51 51°16.199 2°55.729 5.4 310 9 99450 45
2012-04-24 10:56:56 51°16.21 2°55.746 6.2 26 9 99460 44
2012-04-24 10:57:00 51°16.219 2°55.76 5.3 306 9 99460 44
2012-04-24 10:57:05 51°16.23 2°55.777 5.3 26 9 99460 44
2012-04-24 10:57:11 51°16.243 2°55.798 5.4 304 9 99460 44
2012-04-24 10:57:16 51°16.255 2°55.815 5.4 25 9 99460 44
2012-04-24 10:57:21 51°16.266 2°55.832 5.4 306 9 99460 44
2012-04-24 10:57:25 51°16.275 2°55.845 5.2 24 9 99460 44
2012-04-24 10:57:31 51°16.289 2°55.866 5.8 309 9 99460 44
2012-04-24 10:57:36 51°16.299 2°55.884 5.5 25 9 99460 43
2012-04-24 10:57:40 51°16.308 2°55.897 3.5 306 9 99460 43
2012-04-24 10:57:45 51°16.319 2°55.915 6.1 20 9 99460 44
2012-04-24 10:57:51 51°16.333 2°55.935 6.1 310 9 99460 44
2012-04-24 10:57:56 51°16.344 2°55.952 5.7 22 9 99460 43
2012-04-24 10:58:00 51°16.353 2°55.965 5.8 302 9 99460 43
2012-04-24 10:58:06 51°16.366 2°55.985 4.1 25 9 99460 45
2012-04-24 10:58:11 51°16.376 2°56.003 5 307 9 99460 45
2012-04-24 10:58:16 51°16.386 2°56.022 4.8 26 9 99460 44
2012-04-24 10:58:20 51°16.394 2°56.037 4.3 304 9 99460 44
2012-04-24 10:58:26 51°16.404 2°56.061 4.6 25 9 99460 43
2012-04-24 10:58:31 51°16.412 2°56.082 4.5 307 9 99460 43
2012-04-24 10:58:36 51°16.42 2°56.103 4.5 19 9 99460 45
2012-04-24 10:58:40 51°16.425 2°56.121 4.6 308 9 99460 45
2012-04-24 10:58:45 51°16.433 2°56.142 5 27 9 99460 44
2012-04-24 10:58:51 51°16.441 2°56.169 4.6 309 9 99460 44
2012-04-24 10:58:56 51°16.449 2°56.191 5.1 21 9 99460 45
2012-04-24 10:59:00 51°16.454 2°56.209 4.2 308 9 99460 45
2012-04-24 10:59:05 51°16.461 2°56.231 4.6 27 9 99460 44
2012-04-24 10:59:10 51°16.467 2°56.254 0.5 303 9 99460 44
2012-04-24 10:59:16 51°16.475 2°56.28 0.1 25 9 99460 45
2012-04-24 10:59:20 51°16.48 2°56.299 5 311 9 99460 45
2012-04-24 10:59:25 51°16.487 2°56.321 5.2 24 9 99460 44
2012-04-24 10:59:31 51°16.494 2°56.348 4.7 305 9 99460 44
2012-04-24 10:59:36 51°16.501 2°56.37 1.1 22 9.1 99460 45
2012-04-24 10:59:40 51°16.506 2°56.389 1.9 309 9.1 99460 45
2012-04-24 10:59:45 51°16.513 2°56.411 2.4 21 9.1 99460 45
2012-04-24 10:59:51 51°16.521 2°56.438 1.9 304 9.1 99460 45
2012-04-24 10:59:56 51°16.528 2°56.46 3.1 21 9.1 99460 46
2012-04-24 11:00:00 51°16.535 2°56.477 4.3 307 9.1 99460 46
2012-04-24 11:00:06 51°16.544 2°56.503 4.5 21 9.1 99460 45
2012-04-24 11:00:11 51°16.552 2°56.524 5.7 305 9.1 99460 45
2012-04-24 11:00:16 51°16.56 2°56.546 5.7 22 9.1 99460 44
2012-04-24 11:00:20 51°16.568 2°56.562 5.3 303 9.1 99460 44
2012-04-24 11:00:26 51°16.578 2°56.586 3.9 24 9.1 99460 44
2012-04-24 11:00:31 51°16.587 2°56.606 5 301 9.1 99460 44
2012-04-24 11:00:36 51°16.597 2°56.626 5.6 26 9.1 99460 44
2012-04-24 11:00:40 51°16.605 2°56.642 5 307 9.1 99460 44
2012-04-24 11:00:46 51°16.616 2°56.665 5.7 27 9.1 99460 44
2012-04-24 11:00:51 51°16.626 2°56.685 5.4 304 9.1 99460 44
2012-04-24 11:00:56 51°16.636 2°56.704 5.3 26 9.1 99460 45
2012-04-24 11:01:00 51°16.644 2°56.72 5 307 9.1 99460 45
2012-04-24 11:01:05 51°16.654 2°56.739 5.8 24 9.1 99460 45
2012-04-24 11:01:11 51°16.666 2°56.762 5.5 307 9.1 99460 45
2012-04-24 11:01:16 51°16.677 2°56.779 6 316 9.1 99460 45
2012-04-24 11:01:21 51°16.688 2°56.798 6.1 309 9.1 99460 45
2012-04-24 11:01:25 51°16.697 2°56.812 6.1 26 9.1 99460 44
2012-04-24 11:01:30 51°16.708 2°56.831 3.6 304 9.1 99460 44
2012-04-24 11:01:36 51°16.721 2°56.853 5.9 25 9.1 99460 44
2012-04-24 11:01:41 51°16.731 2°56.871 5.2 309 9.1 99460 44
2012-04-24 11:01:45 51°16.74 2°56.886 7 19 9.1 99460 45
2012-04-24 11:01:51 51°16.752 2°56.909 1.8 309 9.1 99460 45
2012-04-24 11:01:56 51°16.763 2°56.928 6 25 9.1 99460 44
2012-04-24 11:02:00 51°16.77 2°56.945 5.9 309 9.1 99460 44
2012-04-24 11:02:05 51°16.779 2°56.965 5.7 21 9.1 99450 45
2012-04-24 11:02:11 51°16.79 2°56.991 5.7 301 9.1 99450 45
2012-04-24 11:02:16 51°16.798 2°57.012 5.5 26 9.1 99460 44
2012-04-24 11:02:20 51°16.805 2°57.029 5.4 303 9.1 99460 44
2012-04-24 11:02:26 51°16.814 2°57.056 5.9 28 9.1 99460 44
2012-04-24 11:02:31 51°16.822 2°57.078 5.6 308 9.1 99460 44
2012-04-24 11:02:36 51°16.831 2°57.099 5.4 22 9.1 99460 43
2012-04-24 11:02:40 51°16.837 2°57.117 4.9 304 9.1 99460 43
2012-04-24 11:02:46 51°16.847 2°57.143 4.8 24 9.1 99460 44
2012-04-24 11:02:51 51°16.856 2°57.164 4.3 308 9.1 99460 44
2012-04-24 11:02:56 51°16.864 2°57.185 5.5 22 9.1 99460 44
2012-04-24 11:03:00 51°16.871 2°57.202 5.7 307 9.1 99460 44
2012-04-24 11:03:05 51°16.879 2°57.224 3.6 20 9.1 99460 44
2012-04-24 11:03:11 51°16.888 2°57.251 4 303 9.1 99460 44
2012-04-24 11:03:16 51°16.896 2°57.273 5 28 9.1 99460 43
2012-04-24 11:03:20 51°16.901 2°57.292 4.2 309 9.1 99460 43
2012-04-24 11:03:26 51°16.909 2°57.32 4.2 26 9.1 99460 43
2012-04-24 11:03:31 51°16.916 2°57.343 4.4 311 9.1 99460 43
2012-04-24 11:03:36 51°16.923 2°57.366 4.6 21 9.1 99460 43
2012-04-24 11:03:40 51°16.928 2°57.385 4.6 309 9.1 99460 43
2012-04-24 11:03:45 51°16.935 2°57.408 4.8 21 9 99460 45
2012-04-24 11:03:51 51°16.943 2°57.435 4.9 306 9 99460 45
2012-04-24 11:03:56 51°16.95 2°57.457 5.9 23 9.1 99460 45
2012-04-24 11:04:01 51°16.958 2°57.479 5.4 307 9.1 99460 45
2012-04-24 11:04:05 51°16.964 2°57.497 5.8 25 9.1 99470 44
2012-04-24 11:04:11 51°16.974 2°57.522 6.1 303 9.1 99470 44
2012-04-24 11:04:16 51°16.982 2°57.544 6.2 22 9.1 99460 45
2012-04-24 11:04:20 51°16.989 2°57.561 6.1 304 9.1 99460 45
2012-04-24 11:04:25 51°16.998 2°57.582 5 21 9.1 99460 45
2012-04-24 11:04:31 51°17.008 2°57.607 5.4 304 9.1 99460 45
2012-04-24 11:04:36 51°17.017 2°57.628 6.1 22 9.1 99460 44
2012-04-24 11:04:40 51°17.024 2°57.645 5.4 310 9.1 99460 44
2012-04-24 11:04:46 51°17.034 2°57.67 5.9 19 9.1 99460 43
2012-04-24 11:04:51 51°17.042 2°57.691 5.6 304 9.1 99460 43
2012-04-24 11:04:56 51°17.05 2°57.713 5.3 28 9.1 99460 44
2012-04-24 11:05:00 51°17.056 2°57.731 4.8 304 9.1 99460 44
2012-04-24 11:05:06 51°17.065 2°57.758 4.8 24 9.1 99460 44
2012-04-24 11:05:11 51°17.072 2°57.78 4.6 309 9.1 99460 44
2012-04-24 11:05:16 51°17.078 2°57.803 5.1 20 9.1 99460 44
2012-04-24 11:05:20 51°17.084 2°57.821 4.4 308 9.1 99460 44
2012-04-24 11:05:25 51°17.09 2°57.844 4.3 28 9.1 99460 44
2012-04-24 11:05:31 51°17.097 2°57.872 4.4 309 9.1 99460 44
2012-04-24 11:05:36 51°17.104 2°57.894 4.3 27 9.1 99460 44
2012-04-24 11:05:40 51°17.11 2°57.912 4.9 308 9.1 99460 44
2012-04-24 11:05:45 51°17.117 2°57.935 5.1 25 9.1 99460 45
2012-04-24 11:05:51 51°17.126 2°57.961 4.6 304 9.1 99460 45
2012-04-24 11:05:56 51°17.134 2°57.983 4.8 26 9.1 99470 44
2012-04-24 11:06:00 51°17.14 2°58.001 3.4 307 9.1 99470 44
2012-04-24 11:06:05 51°17.148 2°58.022 1.7 27 9.1 99460 44
2012-04-24 11:06:11 51°17.158 2°58.047 2.5 307 9.1 99460 44
2012-04-24 11:06:16 51°17.167 2°58.068 2.2 23 9.1 99460 44
2012-04-24 11:06:20 51°17.173 2°58.085 1.6 303 9.1 99460 44
2012-04-24 11:06:26 51°17.184 2°58.11 2.7 27 9.1 99460 44
2012-04-24 11:06:31 51°17.192 2°58.131 1.9 304 9.1 99460 44
2012-04-24 11:06:36 51°17.201 2°58.152 0.2 21 9.1 99460 44
2012-04-24 11:06:40 51°17.208 2°58.169 0.1 306 9.1 99460 44
2012-04-24 11:06:46 51°17.218 2°58.193 4.9 27 9.1 99460 45
2012-04-24 11:06:51 51°17.226 2°58.215 4.7 301 9.1 99460 45
2012-04-24 11:06:55 51°17.233 2°58.231 4.5 23 9.1 99470 44
2012-04-24 11:07:00 51°17.241 2°58.252 3.9 33 9.1 99470 44
2012-04-24 11:07:06 51°17.251 2°58.277 4.9 28 9.1 99460 45
2012-04-24 11:07:11 51°17.259 2°58.299 5.1 286 9.1 99460 45
2012-04-24 11:07:16 51°17.268 2°58.32 4.6 24 9.1 99460 45
2012-04-24 11:07:20 51°17.274 2°58.337 4.4 301 9.1 99460 45
2012-04-24 11:07:26 51°17.283 2°58.363 4.5 20 9.1 99460 45
2012-04-24 11:07:31 51°17.291 2°58.384 4.4 304 9.1 99460 45
2012-04-24 11:07:36 51°17.299 2°58.406 4.8 24 9.1 99460 45
2012-04-24 11:07:40 51°17.305 2°58.424 2.2 309 9.1 99460 45
2012-04-24 11:07:45 51°17.311 2°58.447 3.9 23 9.2 99460 45
2012-04-24 11:07:51 51°17.32 2°58.473 4.2 39 9.2 99460 45
2012-04-24 11:07:56 51°17.327 2°58.496 4.6 23 9.1 99470 45
2012-04-24 11:08:00 51°17.332 2°58.514 5.4 310 9.1 99470 45
2012-04-24 11:08:05 51°17.339 2°58.536 5 26 9.2 99460 44
2012-04-24 11:08:11 51°17.348 2°58.562 5.3 280 9.2 99460 44
2012-04-24 11:08:16 51°17.355 2°58.585 5.7 26 9.2 99460 44
2012-04-24 11:08:20 51°17.36 2°58.603 4.9 307 9.2 99460 44
2012-04-24 11:08:25 51°17.368 2°58.625 5.5 23 9.2 99460 44
2012-04-24 11:08:31 51°17.376 2°58.651 5.1 307 9.2 99460 44
2012-04-24 11:08:36 51°17.384 2°58.672 5.1 21 9.2 99460 44
2012-04-24 11:08:40 51°17.391 2°58.688 5.9 308 9.2 99460 44
2012-04-24 11:08:46 51°17.402 2°58.711 5.1 29 9.2 99460 45
2012-04-24 11:08:51 51°17.414 2°58.727 6.1 304 9.2 99460 45
2012-04-24 11:08:56 51°17.425 2°58.745 2.9 28 9.2 99470 45
2012-04-24 11:09:00 51°17.434 2°58.757 3.6 311 9.2 99470 45
2012-04-24 11:09:06 51°17.447 2°58.778 5.4 26 9.2 99460 44
2012-04-24 11:09:11 51°17.459 2°58.794 5.6 304 9.2 99460 44
2012-04-24 11:09:16 51°17.471 2°58.81 5.3 19 9.2 99460 43
2012-04-24 11:09:20 51°17.48 2°58.822 5.5 309 9.2 99460 43
2012-04-24 11:09:26 51°17.495 2°58.84 6 26 9.2 99460 44
2012-04-24 11:09:31 51°17.507 2°58.856 5.5 307 9.2 99460 44
2012-04-24 11:09:36 51°17.518 2°58.872 5.9 27 9.2 99460 44
2012-04-24 11:09:40 51°17.527 2°58.886 6.1 310 9.2 99460 44
2012-04-24 11:09:45 51°17.538 2°58.904 5.6 19 9.2 99460 45
2012-04-24 11:09:51 51°17.55 2°58.926 5.8 309 9.2 99460 45
2012-04-24 11:09:56 51°17.56 2°58.946 5.2 26 9.2 99460 44
2012-04-24 11:10:01 51°17.569 2°58.966 4.9 303 9.2 99460 44
2012-04-24 11:10:05 51°17.577 2°58.981 5.9 22 9.2 99460 45
2012-04-24 11:10:11 51°17.588 2°59.005 4.8 279 9.2 99460 45
2012-04-24 11:10:16 51°17.597 2°59.025 4.9 24 9.2 99460 45
2012-04-24 11:10:20 51°17.604 2°59.04 4.9 303 9.2 99460 45
2012-04-24 11:10:25 51°17.614 2°59.059 5.5 24 9.2 99460 44
2012-04-24 11:10:31 51°17.627 2°59.081 5.3 309 9.2 99460 44
2012-04-24 11:10:36 51°17.638 2°59.099 5.8 22 9.1 99460 43
2012-04-24 11:10:40 51°17.647 2°59.113 5.7 306 9.1 99460 43
2012-04-24 11:10:45 51°17.657 2°59.13 5.7 25 9.1 99460 43
2012-04-24 11:10:51 51°17.671 2°59.15 5.5 310 9.1 99460 43
2012-04-24 11:10:56 51°17.682 2°59.167 5.6 20 9.1 99460 45
2012-04-24 11:11:00 51°17.692 2°59.18 6.1 309 9.1 99460 45
2012-04-24 11:11:06 51°17.706 2°59.199 5.5 23 9.1 99460 45
2012-04-24 11:11:11 51°17.718 2°59.214 5.8 309 9.1 99460 45
2012-04-24 11:11:16 51°17.73 2°59.229 6.3 24 9.1 99460 43
2012-04-24 11:11:21 51°17.743 2°59.243 6.6 310 9.1 99460 43
2012-04-24 11:11:25 51°17.753 2°59.255 6.4 21 9.1 99460 44
2012-04-24 11:11:31 51°17.769 2°59.271 6.2 309 9.1 99460 44
2012-04-24 11:11:36 51°17.782 2°59.285 6.6 24 9.1 99460 44
2012-04-24 11:11:40 51°17.792 2°59.296 6.3 303 9.1 99460 44
2012-04-24 11:11:45 51°17.805 2°59.309 6.6 28 9.1 99460 44
2012-04-24 11:11:51 51°17.82 2°59.326 6.5 308 9.1 99460 44
2012-04-24 11:11:56 51°17.833 2°59.341 6 27 9.1 99460 44
2012-04-24 11:12:00 51°17.843 2°59.353 6.7 307 9.1 99460 44
2012-04-24 11:12:05 51°17.855 2°59.369 5.9 28 9.1 99460 45
2012-04-24 11:12:11 51°17.869 2°59.389 5.8 278 9.1 99460 45
2012-04-24 11:12:16 51°17.88 2°59.406 6 20 9.1 99460 44
2012-04-24 11:12:20 51°17.889 2°59.42 5.8 308 9.1 99460 44
2012-04-24 11:12:26 51°17.901 2°59.442 5 26 9.1 99460 45
2012-04-24 11:12:31 51°17.911 2°59.461 5.3 308 9.1 99460 45
2012-04-24 11:12:36 51°17.921 2°59.481 4.7 19 9.1 99460 45
2012-04-24 11:12:40 51°17.929 2°59.496 5.5 307 9.1 99460 45
2012-04-24 11:12:46 51°17.941 2°59.519 5.3 28 9.1 99460 45
2012-04-24 11:12:51 51°17.951 2°59.537 5.7 310 9.1 99460 45
2012-04-24 11:12:56 51°17.961 2°59.556 6 26 9.1 99460 43
2012-04-24 11:13:00 51°17.97 2°59.571 6 308 9.1 99460 43
2012-04-24 11:13:06 51°17.983 2°59.592 4.9 27 9.1 99460 43
2012-04-24 11:13:11 51°17.994 2°59.61 5.1 278 9.1 99460 43
2012-04-24 11:13:15 51°18.003 2°59.624 5.5 27 9.1 99460 45
2012-04-24 11:13:20 51°18.013 2°59.642 5.5 302 9.1 99460 45
2012-04-24 11:13:26 51°18.027 2°59.663 5.5 29 9.1 99460 44
2012-04-24 11:13:31 51°18.038 2°59.68 6.1 308 9.1 99460 44
2012-04-24 11:13:36 51°18.049 2°59.698 5.7 29 9.1 99460 45
2012-04-24 11:13:41 51°18.06 2°59.715 5.3 306 9.1 99460 45
2012-04-24 11:13:45 51°18.069 2°59.729 5.6 23 9.1 99460 45
2012-04-24 11:13:51 51°18.082 2°59.751 5.9 306 9.1 99460 45
2012-04-24 11:13:56 51°18.093 2°59.768 6.2 22 9.1 99460 44
2012-04-24 11:14:00 51°18.102 2°59.783 6.1 303 9.1 99460 44
2012-04-24 11:14:05 51°18.113 2°59.8 5.6 21 9.1 99460 45
2012-04-24 11:14:11 51°18.126 2°59.822 6.5 304 9.1 99460 45
2012-04-24 11:14:16 51°18.137 2°59.84 4.5 28 9.2 99460 44
2012-04-24 11:14:20 51°18.145 2°59.854 5.1 309 9.2 99460 44
2012-04-24 11:14:25 51°18.156 2°59.872 5.2 28 9.1 99460 44
2012-04-24 11:14:31 51°18.169 2°59.894 4.6 302 9.1 99460 44
2012-04-24 11:14:36 51°18.179 2°59.912 5.4 22 9.1 99470 43
2012-04-24 11:14:40 51°18.188 2°59.927 5.2 308 9.1 99470 43
2012-04-24 11:14:45 51°18.198 2°59.945 5.6 19 9.1 99470 45
2012-04-24 11:14:51 51°18.211 2°59.967 6.2 301 9.1 99470 45
2012-04-24 11:14:56 51°18.221 2°59.985 5.7 21 9.1 99460 44
2012-04-24 11:15:00 51°18.23 2°60 5.6 310 9.1 99460 44
2012-04-24 11:15:05 51°18.24 3°0.018 5.8 23 9.1 99460 44
2012-04-24 11:15:10 51°18.25 3°0.036 5.8 284 9.1 99460 44
2012-04-24 11:15:16 51°18.263 3°0.058 5 26 9.1 99470 44
2012-04-24 11:15:21 51°18.273 3°0.077 5.7 304 9.1 99470 44
2012-04-24 11:15:25 51°18.281 3°0.092 4.4 25 9.1 99460 44
2012-04-24 11:15:31 51°18.292 3°0.115 4.9 303 9.1 99460 44
2012-04-24 11:15:36 51°18.302 3°0.135 5.1 21 9.1 99460 44
2012-04-24 11:15:40 51°18.309 3°0.15 4.7 302 9.1 99460 44
2012-04-24 11:15:45 51°18.319 3°0.17 4.9 26 9.1 99460 44
2012-04-24 11:15:51 51°18.33 3°0.193 4.5 303 9.1 99460 44
2012-04-24 11:15:56 51°18.339 3°0.213 5.1 25 9.1 99470 45
2012-04-24 11:16:00 51°18.347 3°0.228 4.5 37 9.1 99470 45
2012-04-24 11:16:06 51°18.358 3°0.252 4.8 21 9.1 99470 45
2012-04-24 11:16:11 51°18.367 3°0.272 5 302 9.1 99470 45
2012-04-24 11:16:16 51°18.376 3°0.292 2.5 26 9.1 99470 45
2012-04-24 11:16:20 51°18.384 3°0.307 1.8 302 9.1 99470 45
2012-04-24 11:16:26 51°18.395 3°0.331 1.7 22 9.1 99470 45
2012-04-24 11:16:31 51°18.404 3°0.35 5 307 9.1 99470 45
2012-04-24 11:16:36 51°18.413 3°0.37 5.1 22 9.1 99470 44
2012-04-24 11:16:40 51°18.421 3°0.386 4.2 304 9.1 99470 44
2012-04-24 11:16:45 51°18.43 3°0.405 5.1 26 9.1 99470 44
2012-04-24 11:16:51 51°18.442 3°0.429 5.6 309 9.1 99470 44
2012-04-24 11:16:56 51°18.451 3°0.448 5.2 24 9.1 99470 44
2012-04-24 11:17:00 51°18.459 3°0.464 2 301 9.1 99470 44
2012-04-24 11:17:06 51°18.471 3°0.486 2.6 26 9.1 99470 45
2012-04-24 11:17:11 51°18.481 3°0.505 4.6 307 9.1 99470 45
2012-04-24 11:17:16 51°18.491 3°0.524 1.8 27 9.1 99470 44
2012-04-24 11:17:20 51°18.499 3°0.54 1.8 311 9.1 99470 44
2012-04-24 11:17:25 51°18.508 3°0.56 4.8 21 9.1 99470 44
2012-04-24 11:17:31 51°18.519 3°0.584 4.7 306 9.1 99470 44
2012-04-24 11:17:36 51°18.528 3°0.604 4.5 28 9.1 99470 44
2012-04-24 11:17:41 51°18.537 3°0.625 4.9 308 9.1 99470 44
2012-04-24 11:17:45 51°18.544 3°0.641 5.6 21 9.1 99470 44
2012-04-24 11:17:51 51°18.554 3°0.666 5.1 303 9.1 99470 44
2012-04-24 11:17:56 51°18.563 3°0.687 4.9 19 9.1 99470 45
2012-04-24 11:18:00 51°18.569 3°0.704 5 308 9.1 99470 45
2012-04-24 11:18:05 51°18.578 3°0.725 4.9 22 9.1 99470 45
2012-04-24 11:18:11 51°18.587 3°0.751 4.9 303 9.1 99470 45
2012-04-24 11:18:16 51°18.595 3°0.773 4.5 27 9.1 99470 45
2012-04-24 11:18:20 51°18.601 3°0.79 4.8 307 9.1 99470 45
2012-04-24 11:18:26 51°18.61 3°0.816 5 22 9.1 99470 44
2012-04-24 11:18:31 51°18.618 3°0.838 5.1 308 9.1 99470 44
2012-04-24 11:18:36 51°18.626 3°0.86 5.4 28 9.1 99470 44
2012-04-24 11:18:40 51°18.633 3°0.877 5.6 310 9.1 99470 44
2012-04-24 11:18:45 51°18.641 3°0.899 5.8 25 9.1 99470 44
2012-04-24 11:18:51 51°18.65 3°0.925 5.9 308 9.1 99470 44
2012-04-24 11:18:56 51°18.658 3°0.947 4.8 22 9.2 99470 44
2012-04-24 11:19:00 51°18.664 3°0.964 4.4 306 9.2 99470 44
2012-04-24 11:19:05 51°18.672 3°0.986 4.3 25 9.1 99470 44
2012-04-24 11:19:11 51°18.682 3°1.011 1.4 300 9.1 99470 44
2012-04-24 11:19:16 51°18.69 3°1.033 4.2 28 9.2 99470 43
2012-04-24 11:19:20 51°18.697 3°1.051 1.6 302 9.2 99470 43
2012-04-24 11:19:25 51°18.705 3°1.072 1.2 26 9.2 99470 44
2012-04-24 11:19:31 51°18.715 3°1.098 0.5 302 9.2 99470 44
2012-04-24 11:19:36 51°18.724 3°1.119 0.1 25 9.2 99470 44
2012-04-24 11:19:40 51°18.73 3°1.136 0.1 305 9.2 99470 44
2012-04-24 11:19:46 51°18.741 3°1.162 5.5 20 9.1 99470 44
2012-04-24 11:19:51 51°18.749 3°1.183 4.7 307 9.1 99470 44
2012-04-24 11:19:56 51°18.757 3°1.204 3.3 28 9.2 99470 45
2012-04-24 11:20:00 51°18.764 3°1.221 2.8 301 9.2 99470 45
2012-04-24 11:20:06 51°18.774 3°1.247 3.2 25 9.2 99470 45
2012-04-24 11:20:11 51°18.783 3°1.268 5.3 307 9.2 99470 45
2012-04-24 11:20:15 51°18.79 3°1.284 5.1 25 9.2 99470 45
2012-04-24 11:20:20 51°18.798 3°1.305 5.9 303 9.2 99470 45
2012-04-24 11:20:26 51°18.809 3°1.33 5.1 20 9.1 99470 45
2012-04-24 11:20:31 51°18.818 3°1.35 5.3 308 9.1 99470 45
2012-04-24 11:20:36 51°18.827 3°1.37 5.3 24 9.1 99470 44
2012-04-24 11:20:41 51°18.837 3°1.39 5.1 308 9.1 99470 44
2012-04-24 11:20:46 51°18.846 3°1.41 5.1 28 9.1 99470 44
2012-04-24 11:20:51 51°18.857 3°1.429 5 303 9.1 99470 44
2012-04-24 11:20:56 51°18.866 3°1.449 5.2 22 9.1 99470 44
2012-04-24 11:21:00 51°18.874 3°1.465 6.2 304 9.1 99470 44
2012-04-24 11:21:06 51°18.885 3°1.488 5 29 9.1 99470 44
2012-04-24 11:21:11 51°18.895 3°1.508 5.3 284 9.1 99470 44
2012-04-24 11:21:16 51°18.904 3°1.528 5.7 22 9.1 99470 44
2012-04-24 11:21:20 51°18.912 3°1.543 4.4 307 9.1 99470 44
2012-04-24 11:21:25 51°18.922 3°1.563 4.9 29 9.1 99470 44
2012-04-24 11:21:31 51°18.933 3°1.587 4.3 307 9.1 99470 44
2012-04-24 11:21:36 51°18.942 3°1.607 4 23 9.1 99470 44
2012-04-24 11:21:40 51°18.949 3°1.624 5 310 9.1 99470 44
2012-04-24 11:21:45 51°18.958 3°1.644 4.7 20 9.1 99480 45
2012-04-24 11:21:51 51°18.968 3°1.669 4 305 9.1 99480 45
2012-04-24 11:21:56 51°18.978 3°1.689 3.4 29 9.1 99470 45
2012-04-24 11:22:01 51°18.987 3°1.709 3.5 302 9.1 99470 45
2012-04-24 11:22:05 51°18.995 3°1.725 3.8 27 9.1 99470 46
2012-04-24 11:22:11 51°19.006 3°1.749 4.5 302 9.1 99470 46
2012-04-24 11:22:16 51°19.015 3°1.769 4.3 19 9.2 99480 46
2012-04-24 11:22:21 51°19.025 3°1.789 1.7 308 9.2 99480 46
2012-04-24 11:22:26 51°19.035 3°1.807 2.2 28 9.1 99470 46
2012-04-24 11:22:31 51°19.044 3°1.827 2.1 305 9.1 99470 46
2012-04-24 11:22:36 51°19.055 3°1.846 2.6 24 9.1 99470 44
2012-04-24 11:22:40 51°19.062 3°1.861 5.5 301 9.1 99470 44
2012-04-24 11:22:46 51°19.074 3°1.883 4.4 28 9.1 99470 45
2012-04-24 11:22:51 51°19.084 3°1.902 3.2 309 9.1 99470 45
2012-04-24 11:22:56 51°19.095 3°1.921 4.8 22 9.2 99470 46
2012-04-24 11:23:00 51°19.102 3°1.936 6 308 9.2 99470 46
2012-04-24 11:23:06 51°19.114 3°1.959 5.4 19 9.2 99470 46
2012-04-24 11:23:11 51°19.124 3°1.979 5.7 305 9.2 99470 46
2012-04-24 11:23:16 51°19.133 3°1.998 5.4 21 9.2 99470 44
2012-04-24 11:23:20 51°19.141 3°2.013 5.3 303 9.2 99470 44
2012-04-24 11:23:25 51°19.15 3°2.033 5.1 25 9.2 99470 45
2012-04-24 11:23:31 51°19.16 3°2.058 1.9 302 9.2 99470 45
2012-04-24 11:23:36 51°19.169 3°2.079 1.2 20 9.2 99470 44
2012-04-24 11:23:40 51°19.175 3°2.096 0.2 305 9.2 99470 44
2012-04-24 11:23:45 51°19.183 3°2.117 0.1 24 9.2 99470 45
2012-04-24 11:23:50 51°19.191 3°2.138 0.1 305 9.2 99470 45
2012-04-24 11:23:56 51°19.2 3°2.164 -999 24 9.1 99470 45
2012-04-24 11:24:01 51°19.208 3°2.185 -999 306 9.1 99470 45
2012-04-24 11:24:05 51°19.214 3°2.203 -999 24 9.1 99480 45
2012-04-24 11:24:11 51°19.223 3°2.228 -999 306 9.1 99480 45
2012-04-24 11:24:16 51°19.23 3°2.25 -999 24 9.1 99470 45
2012-04-24 11:24:20 51°19.236 3°2.268 -999 306 9.1 99470 45
2012-04-24 11:24:25 51°19.243 3°2.289 -999 24 9.1 99480 45
2012-04-24 11:24:31 51°19.252 3°2.316 -999 306 9.1 99480 45
2012-04-24 11:24:36 51°19.259 3°2.338 -999 24 9.1 99480 44
2012-04-24 11:24:40 51°19.264 3°2.356 -999 306 9.1 99480 44
2012-04-24 11:24:46 51°19.272 3°2.383 -999 24 9.1 99480 45
2012-04-24 11:24:51 51°19.278 3°2.406 -999 306 9.1 99480 45
2012-04-24 11:24:55 51°19.283 3°2.424 -999 24 9.1 99480 45
2012-04-24 11:25:00 51°19.289 3°2.447 -999 306 9.1 99480 45
2012-04-24 11:25:06 51°19.297 3°2.474 -999 24 9.1 99480 45
2012-04-24 11:25:11 51°19.303 3°2.497 -999 282 9.1 99480 45
2012-04-24 11:25:16 51°19.309 3°2.52 -999 24 9.1 99480 45
2012-04-24 11:25:20 51°19.314 3°2.538 -999 306 9.1 99480 45
2012-04-24 11:25:26 51°19.323 3°2.565 -999 24 9.1 99480 45
2012-04-24 11:25:31 51°19.328 3°2.589 -999 306 9.1 99480 45
2012-04-24 11:25:36 51°19.335 3°2.611 -999 24 9.1 99480 45
2012-04-24 11:25:40 51°19.341 3°2.63 -999 306 9.1 99480 45
2012-04-24 11:25:45 51°19.347 3°2.652 -999 24 9.1 99480 45
2012-04-24 11:25:51 51°19.355 3°2.68 -999 306 9.1 99480 45
2012-04-24 11:25:56 51°19.362 3°2.702 -999 24 9.1 99480 45
2012-04-24 11:26:00 51°19.368 3°2.721 -999 306 9.1 99480 45
2012-04-24 11:26:05 51°19.375 3°2.743 -999 24 9.1 99480 45
2012-04-24 11:26:10 51°19.381 3°2.766 -999 282 9.1 99480 45
2012-04-24 11:26:16 51°19.389 3°2.794 -999 24 9.1 99470 45
2012-04-24 11:26:21 51°19.396 3°2.817 -999 306 9.1 99470 45
2012-04-24 11:26:25 51°19.401 3°2.834 -999 24 9.1 99480 45
2012-04-24 11:26:31 51°19.41 3°2.861 -999 306 9.1 99480 45
2012-04-24 11:26:36 51°19.417 3°2.884 -999 24 9.1 99480 45
2012-04-24 11:26:40 51°19.423 3°2.902 -999 306 9.1 99480 45
2012-04-24 11:26:45 51°19.43 3°2.925 -999 24 9.1 99480 45
2012-04-24 11:26:51 51°19.438 3°2.952 -999 306 9.1 99480 45
2012-04-24 11:26:56 51°19.445 3°2.974 -999 24 9.1 99480 45
2012-04-24 11:27:00 51°19.451 3°2.992 -999 306 9.1 99480 45
2012-04-24 11:27:06 51°19.46 3°3.019 -999 24 9.1 99480 45
2012-04-24 11:27:11 51°19.467 3°3.041 -999 282 9.1 99480 45
2012-04-24 11:27:16 51°19.475 3°3.063 -999 24 9.1 99480 44
2012-04-24 11:27:20 51°19.482 3°3.08 -999 306 9.1 99480 44
2012-04-24 11:27:26 51°19.492 3°3.105 -999 24 9.1 99480 45
2012-04-24 11:27:31 51°19.501 3°3.126 -999 306 9.1 99480 45
2012-04-24 11:27:36 51°19.51 3°3.147 -999 24 9.1 99480 45
2012-04-24 11:27:40 51°19.517 3°3.162 -999 306 9.1 99480 45
2012-04-24 11:27:45 51°19.526 3°3.183 -999 24 9.1 99470 45
2012-04-24 11:27:51 51°19.538 3°3.206 -999 306 9.1 99470 45
2012-04-24 11:27:56 51°19.547 3°3.226 -999 24 9.1 99480 45
2012-04-24 11:28:00 51°19.554 3°3.242 -999 306 9.1 99480 45
2012-04-24 11:28:05 51°19.564 3°3.262 -999 24 9.1 99470 45
2012-04-24 11:28:11 51°19.575 3°3.286 -999 282 9.1 99470 45
2012-04-24 11:28:16 51°19.584 3°3.306 -999 24 9.1 99480 45
2012-04-24 11:28:20 51°19.592 3°3.322 -999 306 9.1 99480 45
2012-04-24 11:28:25 51°19.601 3°3.342 -999 24 9.1 99480 45
2012-04-24 11:28:31 51°19.612 3°3.366 -999 35 9.1 99480 45
2012-04-24 11:28:36 51°19.621 3°3.386 -999 24 9.1 99480 45
2012-04-24 11:28:40 51°19.629 3°3.402 -999 306 9.1 99480 45
2012-04-24 11:28:46 51°19.639 3°3.426 -999 24 9.1 99480 45
2012-04-24 11:28:51 51°19.648 3°3.446 -999 306 9.1 99480 45
2012-04-24 11:28:56 51°19.657 3°3.467 -999 24 9.1 99480 45
2012-04-24 11:29:00 51°19.664 3°3.483 -999 306 9.1 99480 45
2012-04-24 11:29:05 51°19.673 3°3.503 -999 24 9.1 99480 45
2012-04-24 11:29:11 51°19.684 3°3.528 -999 282 9.1 99480 45
2012-04-24 11:29:16 51°19.692 3°3.548 -999 24 9.1 99470 45
2012-04-24 11:29:20 51°19.699 3°3.564 -999 306 9.1 99470 45
2012-04-24 11:29:26 51°19.71 3°3.589 -999 24 9.1 99480 45
2012-04-24 11:29:31 51°19.719 3°3.61 -999 306 9.1 99480 45
2012-04-24 11:29:36 51°19.727 3°3.631 -999 24 9.1 99480 45
2012-04-24 11:29:41 51°19.735 3°3.651 -999 306 9.1 99480 45
2012-04-24 11:29:46 51°19.744 3°3.673 -999 24 9.1 99480 45
2012-04-24 11:29:51 51°19.752 3°3.693 -999 306 9.1 99480 45
2012-04-24 11:29:56 51°19.76 3°3.715 -999 24 9.1 99480 44
2012-04-24 11:30:00 51°19.767 3°3.732 -999 306 9.1 99480 44
2012-04-24 11:30:06 51°19.776 3°3.758 -999 24 9.1 99480 45
2012-04-24 11:30:11 51°19.784 3°3.78 2.6 282 9.1 99480 45
2012-04-24 11:30:16 51°19.791 3°3.801 3.1 25 9.1 99480 45
2012-04-24 11:30:20 51°19.797 3°3.819 2.5 302 9.1 99480 45
2012-04-24 11:30:26 51°19.806 3°3.846 2.8 28 9.1 99480 46
2012-04-24 11:30:31 51°19.813 3°3.868 2.1 308 9.1 99480 46
2012-04-24 11:30:36 51°19.821 3°3.89 1.1 28 9.1 99480 46
2012-04-24 11:30:40 51°19.826 3°3.908 4.6 309 9.1 99480 46
2012-04-24 11:30:45 51°19.834 3°3.929 3.3 315 9.1 99480 45
2012-04-24 11:30:51 51°19.843 3°3.956 5 302 9.1 99480 45
2012-04-24 11:30:56 51°19.85 3°3.978 4.1 25 9 99480 45
2012-04-24 11:31:01 51°19.858 3°4 5.2 308 9 99480 45
2012-04-24 11:31:05 51°19.864 3°4.018 4.6 23 9.1 99480 44
2012-04-24 11:31:11 51°19.873 3°4.044 3.6 279 9.1 99480 44
2012-04-24 11:31:16 51°19.881 3°4.066 5.9 21 9.1 99480 44
2012-04-24 11:31:20 51°19.887 3°4.083 5.5 301 9.1 99480 44
2012-04-24 11:31:25 51°19.895 3°4.104 5.3 28 9.1 99480 46
2012-04-24 11:31:31 51°19.905 3°4.13 5.2 309 9.1 99480 46
2012-04-24 11:31:36 51°19.914 3°4.151 5.6 28 9.1 99480 44
2012-04-24 11:31:40 51°19.92 3°4.167 4.9 309 9.1 99480 44
2012-04-24 11:31:46 51°19.931 3°4.192 5.1 27 9.1 99480 46
2012-04-24 11:31:51 51°19.939 3°4.213 5.7 309 9.1 99480 46
2012-04-24 11:31:56 51°19.948 3°4.234 5.2 25 9.1 99480 45
2012-04-24 11:32:00 51°19.955 3°4.251 5.4 310 9.1 99480 45
2012-04-24 11:32:06 51°19.965 3°4.276 3.5 21 9.1 99480 45
2012-04-24 11:32:11 51°19.974 3°4.297 5.7 284 9.1 99480 45
2012-04-24 11:32:16 51°19.982 3°4.318 5.4 18 9.1 99480 45
2012-04-24 11:32:20 51°19.989 3°4.335 5.7 302 9.1 99480 45
2012-04-24 11:32:25 51°19.998 3°4.356 3.6 21 9.1 99480 46
2012-04-24 11:32:31 51°20.007 3°4.382 1.7 305 9.1 99480 46
2012-04-24 11:32:36 51°20.015 3°4.403 2.4 28 9.1 99480 45
2012-04-24 11:32:40 51°20.022 3°4.421 4.2 308 9.1 99480 45
2012-04-24 11:32:45 51°20.029 3°4.443 4.8 20 9.1 99480 45
2012-04-24 11:32:51 51°20.038 3°4.469 4.8 303 9.1 99480 45
2012-04-24 11:32:56 51°20.046 3°4.491 5.9 315 9.1 99480 45
2012-04-24 11:33:00 51°20.052 3°4.508 3.8 307 9.1 99480 45
2012-04-24 11:33:05 51°20.059 3°4.531 3 29 9.1 99480 45
2012-04-24 11:33:11 51°20.067 3°4.557 5.3 304 9.1 99480 45
2012-04-24 11:33:16 51°20.075 3°4.58 5.7 23 9.1 99480 46
2012-04-24 11:33:21 51°20.082 3°4.602 5.4 302 9.1 99480 46
2012-04-24 11:33:25 51°20.088 3°4.62 5.6 20 9.1 99490 44
2012-04-24 11:33:31 51°20.096 3°4.647 5 310 9.1 99490 44
2012-04-24 11:33:36 51°20.104 3°4.668 4.3 23 9.1 99480 44
2012-04-24 11:33:41 51°20.112 3°4.69 5.1 303 9.1 99480 44
2012-04-24 11:33:45 51°20.118 3°4.707 4.8 29 9.1 99480 44
2012-04-24 11:33:51 51°20.129 3°4.733 5.6 308 9.1 99480 44
2012-04-24 11:33:56 51°20.138 3°4.753 5.2 20 9.1 99480 45
2012-04-24 11:34:01 51°20.147 3°4.774 6.4 308 9.1 99480 45
2012-04-24 11:34:05 51°20.154 3°4.79 6.2 22 9.1 99480 45
2012-04-24 11:34:11 51°20.166 3°4.813 6.7 284 9.1 99480 45
2012-04-24 11:34:16 51°20.175 3°4.833 6.2 315 9.1 99490 45
2012-04-24 11:34:20 51°20.183 3°4.85 5 310 9.1 99490 45
2012-04-24 11:34:25 51°20.19 3°4.872 5.5 26 9.1 99490 46
2012-04-24 11:34:31 51°20.198 3°4.899 5.7 307 9.1 99490 46
2012-04-24 11:34:36 51°20.205 3°4.921 5.2 22 9.1 99480 44
2012-04-24 11:34:40 51°20.211 3°4.939 5 309 9.1 99480 44
2012-04-24 11:34:46 51°20.219 3°4.966 5.8 27 9.1 99480 45
2012-04-24 11:34:51 51°20.227 3°4.987 1.3 302 9.1 99480 45
2012-04-24 11:34:56 51°20.235 3°5.009 1 25 9.1 99480 45
2012-04-24 11:35:00 51°20.242 3°5.025 2.3 311 9.1 99480 45
2012-04-24 11:35:06 51°20.252 3°5.051 1.9 19 9.2 99480 46
2012-04-24 11:35:11 51°20.261 3°5.072 2.5 309 9.2 99480 46
2012-04-24 11:35:16 51°20.269 3°5.093 1.6 25 9.1 99480 44
2012-04-24 11:35:20 51°20.275 3°5.111 0.2 306 9.1 99480 44
2012-04-24 11:35:25 51°20.284 3°5.132 0.1 24 9.1 99480 45
2012-04-24 11:35:31 51°20.293 3°5.157 -999 306 9.1 99480 45
2012-04-24 11:35:36 51°20.302 3°5.179 -999 24 9.1 99480 46
2012-04-24 11:35:40 51°20.308 3°5.196 -999 306 9.1 99480 46
2012-04-24 11:35:46 51°20.319 3°5.221 -999 24 9.1 99480 45
2012-04-24 11:35:51 51°20.328 3°5.241 -999 306 9.1 99480 45
2012-04-24 11:35:56 51°20.337 3°5.261 -999 24 9.1 99490 45
2012-04-24 11:36:00 51°20.344 3°5.278 -999 306 9.1 99490 45
2012-04-24 11:36:06 51°20.356 3°5.302 -999 24 9.1 99480 45
2012-04-24 11:36:11 51°20.365 3°5.322 0.5 279 9.1 99480 45
2012-04-24 11:36:16 51°20.375 3°5.342 0.1 24 9.1 99480 45
2012-04-24 11:36:21 51°20.384 3°5.362 0.2 305 9.1 99480 45
2012-04-24 11:36:25 51°20.392 3°5.378 0.1 24 9.1 99490 45
2012-04-24 11:36:31 51°20.403 3°5.403 -999 306 9.1 99490 45
2012-04-24 11:36:36 51°20.411 3°5.424 -999 24 9.1 99490 46
2012-04-24 11:36:40 51°20.418 3°5.44 0.1 306 9.1 99490 46
2012-04-24 11:36:45 51°20.427 3°5.461 0.2 24 9.1 99490 45
2012-04-24 11:36:51 51°20.437 3°5.487 0.1 306 9.1 99490 45
2012-04-24 11:36:56 51°20.446 3°5.508 -999 24 9.1 99480 45
2012-04-24 11:37:00 51°20.452 3°5.525 -999 306 9.1 99480 45
2012-04-24 11:37:05 51°20.461 3°5.546 -999 24 9.1 99490 45
2012-04-24 11:37:11 51°20.47 3°5.572 -999 306 9.1 99490 45
2012-04-24 11:37:16 51°20.478 3°5.595 -999 24 9.2 99480 45
2012-04-24 11:37:20 51°20.484 3°5.612 -999 306 9.2 99480 45
2012-04-24 11:37:25 51°20.492 3°5.634 -999 24 9.2 99480 45